period_start,C,m1,H,J0,J1,J2,J3,J4,J5,JA,JB,JC,JD,JJ,JK,JN,#
2018-08-01 00:03:30,0.03,1.89,0.00,26.62,30.25,32.82,13.62,44.89,1007.34,2013.92,2760.08,2560.99,2910.99,600.03,583.45,58.90,0000 0000 0000 0000 000000
2018-08-01 00:08:31,-0.00,1.90,0.00,26.62,30.23,32.81,13.58,44.81,1007.34,2013.97,2760.15,2560.97,2910.97,600.05,583.53,58.95,0000 0000 0000 0000 000000
2018-08-01 00:13:32,0.09,1.90,0.00,26.60,30.22,32.77,13.63,44.80,1007.35,2013.97,2758.44,2560.12,2910.11,600.21,583.80,59.01,0000 0000 0000 0000 000000
2018-08-01 00:18:33,0.00,1.90,0.00,26.58,30.20,32.79,13.57,44.83,1007.35,2013.98,2758.34,2560.00,2910.00,600.23,583.80,59.06,0000 0000 0000 0000 000000
2018-08-01 00:23:34,-0.00,1.90,0.00,26.57,30.18,32.75,13.61,44.68,1007.35,2013.99,2758.66,2560.02,2910.00,599.76,583.33,59.11,0000 0000 0000 0000 000000
2018-08-01 00:28:36,0.01,1.90,0.00,26.56,30.16,32.72,13.58,44.56,1007.35,2013.99,2758.45,2560.01,2910.00,599.91,583.50,59.16,0000 0000 0000 0000 000000
2018-08-01 00:33:37,0.00,1.90,0.00,26.55,30.15,32.71,13.69,44.80,1007.35,2013.99,2758.46,2560.03,2910.01,600.56,584.26,59.21,0000 0000 0000 0000 000000
2018-08-01 00:38:38,0.00,1.90,0.00,26.52,30.13,32.69,13.65,44.79,1007.35,2014.00,2758.17,2560.03,2910.01,600.08,583.69,59.26,0000 0000 0000 0000 000000
2018-08-01 00:43:39,-0.01,1.90,0.00,26.51,30.11,32.67,13.54,44.67,1007.35,2014.02,2758.60,2560.14,2910.05,599.94,583.62,59.31,0000 0000 0000 0000 000000
2018-08-01 00:48:40,-0.00,1.90,0.00,26.50,30.10,32.66,13.61,44.87,1007.35,2014.06,2758.56,2560.27,2910.12,600.01,583.62,59.36,0000 0000 0000 0000 000000
2018-08-01 00:53:42,-0.00,1.90,0.00,26.50,30.08,32.64,13.54,44.62,1007.35,2014.17,2758.68,2560.57,2910.35,599.96,583.56,59.41,0000 0000 0000 0000 000000
2018-08-01 00:58:43,0.00,1.90,0.00,26.51,30.07,32.61,13.65,44.66,1007.35,2014.37,2758.92,2560.86,2910.61,600.39,584.05,59.46,0000 0000 0000 0000 000000
2018-08-01 01:03:44,0.02,1.90,0.00,26.53,30.05,32.59,13.60,44.67,1007.35,2014.62,2758.98,2560.94,2910.88,599.75,583.40,59.51,0000 0000 0000 0000 000000
2018-08-01 01:08:45,0.02,1.90,0.00,26.55,30.05,32.57,13.51,44.57,1007.36,2014.93,2758.98,2560.98,2910.98,599.76,583.47,59.56,0000 0000 0000 0000 000000
2018-08-01 01:13:46,-0.01,1.90,0.00,26.55,30.04,32.55,13.53,44.60,1007.35,2014.92,2758.98,2560.97,2910.97,599.91,583.52,59.61,0000 0000 0000 0000 000000
2018-08-01 01:18:47,0.00,1.90,0.00,26.55,30.02,32.54,13.60,44.79,1007.35,2014.96,2758.99,2560.99,2910.97,600.41,583.99,59.66,0000 0000 0000 0000 000000
2018-08-01 01:23:48,-0.00,1.90,0.00,26.55,30.02,32.52,13.57,44.61,1007.36,2014.97,2758.99,2560.99,2910.98,600.04,583.65,59.71,0000 0000 0000 0000 000000
2018-08-01 01:28:50,-0.00,1.90,0.00,26.55,30.02,32.52,13.58,44.73,1007.35,2014.98,2758.99,2560.99,2910.98,599.96,583.66,59.76,0000 0000 0000 0000 000000
2018-08-01 01:33:51,0.00,1.90,0.00,26.55,30.01,32.50,13.60,44.73,1007.40,2014.99,2758.98,2560.99,2910.98,599.98,583.66,59.81,0000 0000 0000 0000 000000
2018-08-01 01:38:52,-0.00,1.90,0.00,26.55,30.00,32.52,13.63,44.63,1007.53,2014.99,2758.98,2560.99,2910.99,599.96,583.67,59.86,0000 0000 0000 0000 000000
2018-08-01 01:43:53,0.00,1.90,0.00,26.55,30.00,32.51,13.66,44.75,1007.58,2014.99,2758.98,2560.99,2910.99,600.02,583.88,59.91,0000 0000 0000 0000 000000
2018-08-01 01:48:54,0.00,1.90,0.00,26.55,30.00,32.50,13.64,44.75,1007.53,2014.99,2758.97,2560.99,2910.99,600.15,583.82,59.96,0000 0000 0000 0000 000000
2018-08-01 01:53:56,0.00,1.90,0.00,26.55,30.00,32.50,13.66,44.88,1007.67,2014.99,2758.99,2560.99,2910.98,600.34,584.12,60.02,0000 0000 0000 0000 000000
2018-08-01 01:58:57,0.00,1.90,0.00,26.55,30.00,32.51,11.93,39.48,1007.61,2015.06,2781.94,2578.06,2932.02,532.25,517.81,60.06,0000 0000 0000 0000 000002
2018-08-01 02:03:58,0.00,0.00,0.00,26.55,30.00,32.53,13.54,46.30,1007.59,2016.99,3441.07,3070.70,3542.56,596.70,580.47,0.01,0000 0000 0000 0000 000000
2018-08-01 02:08:59,0.00,0.00,0.00,26.54,30.00,32.53,13.59,45.96,1007.43,2016.98,3437.76,3069.81,3541.17,599.71,583.38,0.06,0000 0000 0000 0000 000000
2018-08-01 02:14:00,0.00,0.00,0.00,26.52,30.00,32.52,13.63,45.97,1007.52,2016.97,3437.03,3069.48,3540.33,600.13,583.91,0.11,0000 0000 0000 0000 000000
2018-08-01 02:19:01,0.00,0.00,0.00,26.52,29.99,32.51,13.62,45.93,1007.68,2016.99,3436.96,3069.29,3540.00,600.34,584.18,0.16,0000 0000 0000 0000 000000
2018-08-01 02:24:02,0.01,0.00,0.00,26.53,29.99,32.53,13.60,45.87,1007.53,2016.99,3436.37,3069.05,3539.55,600.26,584.05,0.21,0000 0000 0000 0000 000000
2018-08-01 02:29:03,0.01,0.00,0.00,26.52,29.98,32.52,13.66,45.79,1007.47,2016.99,3436.05,3069.03,3539.02,600.10,583.86,0.26,0000 0000 0000 0000 000000
2018-08-01 02:34:05,0.00,0.00,0.00,26.52,29.98,32.51,13.60,45.78,1007.42,2016.99,3436.00,3069.01,3538.98,599.67,583.30,0.31,0000 0000 0000 0000 000000
2018-08-01 02:39:06,0.00,0.00,0.00,26.51,29.97,32.53,13.62,45.73,1007.60,2016.98,3436.00,3069.00,3538.77,600.09,583.87,0.36,0000 0000 0000 0000 000000
2018-08-01 02:44:08,0.01,0.00,0.00,26.50,29.97,32.51,13.64,45.73,1007.78,2016.99,3435.95,3069.00,3538.18,600.19,584.10,0.41,0000 0000 0000 0000 000000
2018-08-01 02:49:09,0.00,0.00,0.00,26.50,29.97,32.53,13.64,45.78,1007.79,2016.99,3435.68,3069.00,3538.02,600.16,584.12,0.46,0000 0000 0000 0000 000000
2018-08-01 02:54:11,-0.00,0.00,0.00,26.50,29.97,32.53,13.64,45.85,1007.80,2016.99,3435.85,3069.00,3538.00,600.19,584.08,0.51,0000 0000 0000 0000 000000
2018-08-01 02:59:12,0.01,0.00,0.00,26.50,29.97,32.52,13.72,45.83,1007.83,2016.99,3435.40,3069.00,3538.00,600.61,584.61,0.56,0000 0000 0000 0000 000000
2018-08-01 03:04:13,0.00,0.00,0.00,26.49,29.97,32.52,13.65,45.77,1007.83,2016.99,3435.04,3069.00,3537.97,599.99,583.98,0.61,0000 0000 0000 0000 000000
2018-08-01 03:09:14,0.00,0.00,0.00,26.47,29.95,32.52,13.63,45.90,1007.83,2016.99,3435.01,3069.00,3537.80,600.18,584.17,0.66,0000 0000 0000 0000 000000
2018-08-01 03:14:16,0.00,0.00,0.00,26.47,29.95,32.52,13.61,45.81,1007.83,2016.99,3435.00,3068.99,3537.66,599.73,583.69,0.71,0000 0000 0000 0000 000000
2018-08-01 03:19:17,0.00,0.00,0.00,26.47,29.95,32.51,13.61,45.84,1007.83,2016.99,3435.00,3068.99,3537.42,600.12,584.06,0.76,0000 0000 0000 0000 000000
2018-08-01 03:24:18,-0.00,0.00,0.00,26.47,29.95,32.51,13.63,45.83,1007.83,2016.99,3435.00,3069.00,3537.25,600.03,584.06,0.81,0000 0000 0000 0000 000000
2018-08-01 03:29:20,0.00,0.00,0.00,26.47,29.95,32.50,13.54,45.78,1007.83,2016.99,3435.00,3069.00,3537.22,599.67,583.77,0.86,0000 0000 0000 0000 000000
2018-08-01 03:34:21,0.00,0.00,0.00,26.47,29.95,32.50,13.65,45.91,1007.83,2016.99,3434.97,3069.00,3537.01,600.04,584.13,0.91,0000 0000 0000 0000 000000
2018-08-01 03:39:22,0.00,0.00,0.00,26.45,29.94,32.51,13.68,45.87,1007.84,2016.99,3434.95,3069.00,3537.00,600.03,584.06,0.96,0000 0000 0000 0000 000000
2018-08-01 03:44:24,-0.00,0.00,0.00,26.45,29.93,32.49,13.61,45.80,1007.85,2016.99,3434.84,3068.99,3537.00,600.02,584.08,1.01,0000 0000 0000 0000 000000
2018-08-01 03:49:25,0.00,0.00,0.00,26.45,29.92,32.50,13.61,45.94,1007.85,2016.99,3434.81,3068.99,3537.00,599.86,583.91,1.07,0000 0000 0000 0000 000000
2018-08-01 03:54:26,0.00,0.00,0.00,26.45,29.92,32.50,13.60,45.88,1007.84,2016.99,3434.83,3069.00,3537.00,600.16,584.35,1.12,0000 0000 0000 0000 000000
2018-08-01 03:59:27,0.01,0.00,0.00,26.42,29.92,32.49,13.63,45.97,1007.83,2016.99,3434.36,3069.00,3537.00,599.72,583.78,1.17,0000 0000 0000 0000 000000
2018-08-01 04:04:29,0.00,0.00,0.00,26.42,29.92,32.48,13.58,45.84,1007.83,2016.99,3434.14,3069.00,3536.96,600.10,584.29,1.22,0000 0000 0000 0000 000000
2018-08-01 04:09:30,0.00,0.00,0.00,26.42,29.92,32.47,13.59,45.89,1007.83,2016.99,3434.12,3069.00,3536.98,599.95,584.19,1.27,0000 0000 0000 0000 000000
2018-08-01 04:14:31,0.00,0.00,0.00,26.42,29.91,32.48,13.68,45.90,1007.84,2017.00,3434.14,3069.00,3536.97,599.97,584.07,1.32,0000 0000 0000 0000 000000
2018-08-01 04:19:32,0.00,0.00,0.00,26.40,29.90,32.48,13.56,45.77,1007.83,2017.00,3434.08,3069.00,3536.93,599.98,584.32,1.37,0000 0000 0000 0000 000000
2018-08-01 04:24:34,-0.00,0.00,0.00,26.40,29.90,32.47,13.70,45.88,1007.83,2017.00,3434.01,3069.00,3536.80,600.70,584.78,1.42,0000 0000 0000 0000 000000
2018-08-01 04:29:35,0.00,0.00,0.00,26.40,29.90,32.46,13.67,45.81,1007.83,2017.00,3434.02,3069.00,3536.67,599.97,584.17,1.47,0000 0000 0000 0000 000000
2018-08-01 04:34:36,-0.00,0.00,0.00,26.40,29.90,32.47,13.72,45.86,1007.84,2017.01,3434.00,3069.00,3536.50,600.20,584.42,1.52,0000 0000 0000 0000 000000
2018-08-01 04:39:37,0.00,0.01,0.00,26.39,29.88,32.46,13.55,45.81,1007.83,2017.01,3434.00,3069.00,3536.21,599.65,583.87,1.57,0000 0000 0000 0000 000000
2018-08-01 04:44:38,0.00,0.01,0.00,26.37,29.87,32.44,13.60,45.83,1007.84,2017.00,3434.00,3069.00,3536.09,599.99,584.22,1.62,0000 0000 0000 0000 000000
2018-08-01 04:49:39,0.00,0.01,0.00,26.37,29.87,32.45,13.63,45.88,1007.86,2017.01,3434.00,3069.00,3536.10,599.87,584.10,1.67,0000 0000 0000 0000 000000
2018-08-01 04:54:41,0.00,0.01,0.00,26.36,29.87,32.45,13.68,45.96,1007.87,2017.03,3433.98,3069.00,3536.06,600.31,584.62,1.72,0000 0000 0000 0000 000000
2018-08-01 04:59:42,0.00,0.01,0.00,26.35,29.87,32.45,13.59,45.79,1007.84,2017.03,3433.98,3069.00,3536.05,600.35,584.54,1.77,0000 0000 0000 0000 000000
2018-08-01 05:04:43,0.03,0.01,0.00,26.35,29.86,32.45,13.60,45.77,1007.87,2017.12,3433.47,3068.92,3535.99,600.09,584.24,1.82,0000 0000 0000 0000 000000
2018-08-01 05:09:44,-0.00,0.01,0.00,26.35,29.85,32.43,13.64,45.83,1007.92,2017.11,3433.23,3068.91,3535.98,599.81,584.14,1.87,0000 0000 0000 0000 000000
2018-08-01 05:14:46,0.01,0.01,0.00,26.34,29.85,32.43,13.68,45.92,1008.03,2017.07,3433.08,3068.81,3535.84,599.96,584.33,1.92,0000 0000 0000 0000 000000
2018-08-01 05:19:47,0.00,0.01,0.00,26.33,29.85,32.41,13.62,45.85,1008.01,2017.04,3433.00,3068.71,3535.53,600.46,584.90,1.97,0000 0000 0000 0000 000000
2018-08-01 05:24:49,0.04,0.01,0.00,26.32,29.85,32.40,13.70,45.88,1008.26,2017.11,3432.52,3068.10,3535.04,600.08,584.75,2.02,0000 0000 0000 0000 000000
2018-08-01 05:29:50,0.00,0.01,0.00,26.32,29.83,32.42,13.66,45.84,1008.31,2017.10,3432.03,3068.00,3534.98,600.27,584.83,2.07,0000 0000 0000 0000 000000
2018-08-01 05:34:51,0.03,0.01,0.00,26.31,29.82,32.41,13.65,45.92,1008.31,2017.26,3431.97,3067.98,3534.53,600.17,584.76,2.12,0000 0000 0000 0000 000000
2018-08-01 05:39:52,0.01,0.01,0.00,26.30,29.82,32.40,13.69,45.90,1008.31,2017.46,3431.82,3067.98,3534.16,600.27,584.89,2.17,0000 0000 0000 0000 000000
2018-08-01 05:44:53,0.02,0.01,0.00,26.30,29.82,32.40,13.65,45.77,1008.31,2017.53,3431.62,3067.98,3534.06,599.91,584.59,2.22,0000 0000 0000 0000 000000
2018-08-01 05:49:55,0.03,0.01,0.00,26.28,29.82,32.41,13.67,45.86,1008.31,2017.75,3431.03,3067.96,3534.00,599.73,584.46,2.27,0000 0000 0000 0000 000000
2018-08-01 05:54:56,-0.00,0.01,0.00,26.27,29.80,32.41,13.64,45.96,1008.32,2017.70,3431.00,3067.92,3534.00,599.97,584.68,2.32,0000 0000 0000 0000 000000
2018-08-01 05:59:57,0.01,0.01,0.00,26.27,29.80,32.40,13.59,45.86,1008.32,2017.77,3431.00,3067.90,3534.00,599.73,584.47,2.37,0000 0000 0000 0000 000000
2018-08-01 06:04:58,0.00,0.01,0.00,26.28,29.80,32.34,13.64,45.91,1008.32,2017.87,3431.00,3067.90,3534.00,599.89,584.51,2.42,0000 0000 0000 0000 000000
2018-08-01 06:10:00,0.01,0.01,0.00,26.50,29.80,32.26,13.64,45.82,1008.33,2017.91,3430.97,3067.71,3533.98,599.99,584.21,2.47,0000 0000 0000 0000 000000
2018-08-01 06:15:01,0.00,0.02,0.00,26.76,29.82,32.23,13.54,45.82,1008.34,2017.73,3430.84,3067.13,3533.62,599.70,583.43,2.52,0000 0000 0000 0000 000000
2018-08-01 06:20:02,-0.03,0.01,0.00,26.95,29.85,32.25,13.54,45.91,1008.34,2017.31,3430.26,3067.01,3533.07,600.04,583.30,2.57,0000 0000 0000 0000 000000
2018-08-01 06:25:03,-0.01,0.01,0.00,27.09,29.88,32.32,13.61,45.95,1008.35,2017.06,3430.01,3066.98,3532.96,600.24,583.43,2.62,0000 0000 0000 0000 000000
2018-08-01 06:30:05,0.02,0.01,0.00,27.21,29.92,32.39,13.62,45.88,1008.50,2017.02,3429.95,3066.68,3532.52,600.09,583.08,2.67,0000 0000 0000 0000 000000
2018-08-01 06:35:06,0.02,0.02,0.00,27.31,29.97,32.47,13.58,45.92,1008.59,2017.00,3429.22,3066.04,3531.99,600.25,583.13,2.72,0000 0000 0000 0000 000000
2018-08-01 06:40:08,0.02,0.02,0.00,27.40,30.02,32.55,13.52,45.90,1008.73,2016.97,3428.91,3065.80,3531.24,599.89,582.69,2.77,0000 0000 0000 0000 000000
2018-08-01 06:45:09,-0.01,0.02,0.00,27.46,30.08,32.66,13.56,45.91,1008.79,2016.63,3428.21,3065.11,3530.92,600.07,582.79,2.82,0000 0000 0000 0000 000000
2018-08-01 06:50:10,-0.02,0.02,0.00,27.52,30.14,32.73,13.52,46.02,1008.80,2016.05,3427.91,3064.96,3530.11,599.92,582.51,2.87,0000 0000 0000 0000 000000
2018-08-01 06:55:11,0.04,0.02,0.00,27.56,30.21,32.83,13.57,45.67,1008.80,2016.00,3427.15,3064.24,3529.75,600.02,582.46,2.92,0000 0000 0000 0000 000000
2018-08-01 07:00:12,0.01,0.02,0.00,27.60,30.27,32.90,13.45,45.64,1008.80,2015.99,3426.90,3064.00,3529.03,599.32,581.71,2.97,0000 0000 0000 0000 000000
2018-08-01 07:05:13,0.01,0.02,0.00,27.63,30.34,32.97,13.57,45.76,1008.81,2015.74,3426.08,3063.45,3528.42,600.10,582.47,3.02,0000 0000 0000 0000 000000
2018-08-01 07:10:15,-0.04,0.02,0.00,27.66,30.40,33.06,13.53,45.60,1008.81,2015.11,3425.77,3063.02,3527.98,599.90,582.17,3.07,0000 0000 0000 0000 000000
2018-08-01 07:15:16,0.03,0.02,0.00,27.69,30.47,33.12,13.52,45.62,1008.81,2014.99,3425.06,3062.59,3527.26,599.89,582.10,3.12,0000 0000 0000 0000 000000
2018-08-01 07:20:17,0.01,0.02,0.00,27.70,30.53,33.19,13.55,45.52,1008.83,2014.83,3424.50,3062.02,3526.67,599.97,582.18,3.17,0000 0000 0000 0000 000000
2018-08-01 07:25:18,-0.03,0.02,0.00,27.71,30.59,33.23,13.51,45.58,1008.85,2014.14,3424.01,3061.62,3526.01,600.03,582.28,3.22,0000 0000 0000 0000 000000
2018-08-01 07:30:20,0.03,0.02,0.00,27.73,30.64,33.29,13.57,45.59,1008.86,2014.00,3423.41,3061.03,3525.41,600.14,582.33,3.27,0000 0000 0000 0000 000000
2018-08-01 07:35:21,0.00,0.02,0.00,27.75,30.70,33.36,13.54,45.58,1008.86,2013.99,3422.99,3060.98,3525.00,599.80,581.96,3.32,0000 0000 0000 0000 000000
2018-08-01 07:40:23,0.03,0.02,0.00,27.75,30.75,33.42,13.57,45.63,1008.97,2013.86,3422.32,3060.25,3524.35,600.32,582.42,3.37,0000 0000 0000 0000 000000
2018-08-01 07:45:24,-0.06,0.02,0.00,27.75,30.80,33.46,13.53,45.63,1009.21,2013.16,3421.99,3060.00,3523.99,599.88,582.34,3.42,0000 0000 0000 0000 000000
2018-08-01 07:50:25,0.20,0.02,0.00,27.75,30.85,33.51,13.56,45.60,1009.28,2013.01,3418.54,3058.22,3521.65,599.99,582.33,3.48,0000 0000 0000 0000 000000
2018-08-01 07:55:26,0.03,0.03,0.00,27.74,30.90,33.53,13.54,45.68,1009.29,2013.00,3415.85,3056.82,3520.01,599.93,582.35,3.53,0000 0000 0000 0000 000000
2018-08-01 08:00:28,0.03,0.03,0.00,27.75,30.94,33.57,13.52,45.66,1009.29,2012.95,3415.09,3056.10,3519.58,600.08,582.50,3.58,0000 0000 0000 0000 000000
2018-08-01 08:05:29,0.07,0.03,0.00,27.73,30.98,33.61,13.53,45.67,1009.29,2012.56,3413.06,3054.91,3517.89,599.96,582.42,3.63,0000 0000 0000 0000 000000
2018-08-01 08:10:30,0.31,0.05,0.00,27.72,31.01,33.66,13.57,45.68,1009.29,2012.15,3405.41,3049.84,3512.43,599.95,582.44,3.68,0000 0000 0000 0000 000000
2018-08-01 08:15:31,0.16,0.06,0.00,27.72,31.05,33.68,13.65,45.66,1009.29,2012.01,3400.92,3047.33,3509.35,600.33,582.72,3.73,0000 0000 0000 0000 000000
2018-08-01 08:20:33,0.06,0.06,0.00,27.72,31.08,33.71,13.54,45.67,1009.29,2012.00,3398.64,3046.04,3507.96,599.88,582.36,3.78,0000 0000 0000 0000 000000
2018-08-01 08:25:34,0.02,0.06,0.00,27.70,31.11,33.73,13.62,45.83,1009.30,2012.00,3398.02,3045.71,3507.15,599.98,582.42,3.83,0000 0000 0000 0000 000000
2018-08-01 08:30:35,0.01,0.06,0.00,27.70,31.14,33.75,13.61,45.77,1009.30,2011.97,3397.92,3045.16,3506.99,599.94,582.45,3.88,0000 0000 0000 0000 000000
2018-08-01 08:35:36,0.01,0.06,0.00,27.67,31.16,33.80,13.58,45.72,1009.31,2011.92,3397.41,3045.01,3506.88,599.82,582.35,3.93,0000 0000 0000 0000 000000
2018-08-01 08:40:38,-0.03,0.06,0.00,27.67,31.19,33.81,13.65,45.67,1009.33,2011.63,3396.97,3044.99,3506.11,600.41,582.87,3.98,0000 0000 0000 0000 000000
2018-08-01 08:45:38,0.15,0.06,0.00,27.67,31.21,33.85,13.52,45.65,1009.53,2011.21,3394.26,3043.47,3504.65,599.85,582.56,4.03,0000 0000 0000 0000 000000
2018-08-01 08:50:40,0.23,0.08,0.00,27.65,31.22,33.86,13.60,45.73,1009.69,2011.04,3387.14,3039.62,3500.27,599.86,582.70,4.08,0000 0000 0000 0000 000000
2018-08-01 08:55:41,0.06,0.09,0.00,27.64,31.25,33.90,13.61,45.76,1009.68,2011.00,3384.32,3038.05,3498.61,600.14,583.08,4.13,0000 0000 0000 0000 000000
2018-08-01 09:00:43,0.01,0.09,0.00,27.63,31.26,33.92,13.62,45.74,1009.73,2011.00,3383.86,3037.95,3498.01,599.97,582.94,4.18,0000 0000 0000 0000 000000
2018-08-01 09:05:44,0.04,0.09,0.00,27.62,31.27,33.94,13.53,45.81,1009.74,2011.00,3383.16,3037.44,3497.57,599.83,582.79,4.23,0000 0000 0000 0000 000000
2018-08-01 09:10:45,0.01,0.09,0.00,27.62,31.29,33.98,13.63,45.83,1009.77,2010.99,3382.49,3037.00,3497.02,600.13,583.01,4.28,0000 0000 0000 0000 000000
2018-08-01 09:15:46,0.00,0.09,0.00,27.61,31.30,34.01,13.62,45.82,1009.77,2010.98,3382.01,3036.98,3496.92,599.84,582.78,4.33,0000 0000 0000 0000 000000
2018-08-01 09:20:48,0.01,0.09,0.00,27.60,31.31,34.07,13.65,45.83,1009.78,2010.98,3381.88,3036.89,3496.31,599.85,582.82,4.38,0000 0000 0000 0000 000000
2018-08-01 09:25:49,0.03,0.09,0.00,27.59,31.32,34.12,13.60,45.80,1009.78,2010.98,3381.21,3036.45,3496.04,600.06,583.07,4.43,0000 0000 0000 0000 000000
2018-08-01 09:30:51,-0.00,0.09,0.00,27.57,31.32,34.15,13.58,45.86,1009.78,2010.95,3381.01,3036.16,3496.00,600.03,583.05,4.48,0000 0000 0000 0000 000000
2018-08-01 09:35:52,0.02,0.09,0.00,27.56,31.33,34.19,13.52,45.82,1009.78,2010.92,3380.52,3036.01,3495.64,599.58,582.49,4.53,0000 0000 0000 0000 000000
2018-08-01 09:40:53,0.01,0.09,0.00,27.56,31.35,34.22,13.58,45.78,1009.79,2010.87,3380.02,3036.00,3495.08,599.98,583.07,4.58,0000 0000 0000 0000 000000
2018-08-01 09:45:54,-0.01,0.09,0.00,27.55,31.35,34.25,13.59,45.83,1009.79,2010.78,3380.00,3035.99,3495.01,599.76,582.85,4.63,0000 0000 0000 0000 000000
2018-08-01 09:50:55,-0.01,0.09,0.00,27.54,31.35,34.27,13.65,45.86,1009.79,2010.64,3379.98,3035.96,3495.00,599.90,582.91,4.68,0000 0000 0000 0000 000000
2018-08-01 09:55:56,0.01,0.09,0.00,27.52,31.35,34.27,13.57,45.94,1009.80,2010.71,3379.88,3035.94,3494.97,599.84,582.95,4.73,0000 0000 0000 0000 000000
2018-08-01 10:00:57,-0.01,0.09,0.00,27.51,31.36,34.27,13.69,45.95,1009.80,2010.45,3379.35,3035.82,3494.69,600.10,583.17,4.78,0000 0000 0000 0000 000000
2018-08-01 10:05:59,0.01,0.09,0.00,27.51,31.37,34.27,13.68,45.86,1009.81,2010.29,3379.03,3035.55,3494.15,599.79,582.96,4.83,0000 0000 0000 0000 000000
2018-08-01 10:11:00,0.00,0.09,0.00,27.50,31.37,34.29,13.66,45.98,1009.80,2010.22,3378.99,3035.10,3494.02,600.11,583.16,4.88,0000 0000 0000 0000 000000
2018-08-01 10:16:01,0.01,0.09,0.00,27.49,31.37,34.31,13.63,46.03,1009.83,2010.23,3378.92,3035.01,3494.00,600.02,583.23,4.93,0000 0000 0000 0000 000000
2018-08-01 10:21:02,0.01,0.09,0.00,27.49,31.37,34.34,13.58,46.06,1009.88,2010.20,3378.44,3035.01,3493.96,599.96,583.13,4.98,0000 0000 0000 0000 000000
2018-08-01 10:26:03,0.00,0.09,0.00,27.47,31.37,34.34,13.63,45.98,1010.04,2010.08,3378.03,3035.00,3493.43,599.94,583.32,5.03,0000 0000 0000 0000 000000
2018-08-01 10:31:05,0.00,0.09,0.00,27.47,31.37,34.34,13.68,46.01,1010.02,2010.06,3378.00,3035.00,3493.03,600.31,583.63,5.08,0000 0000 0000 0000 000000
2018-08-01 10:36:06,0.00,0.09,0.00,27.46,31.37,34.32,13.63,46.08,1010.09,2010.10,3377.90,3034.98,3493.00,600.09,583.54,5.13,0000 0000 0000 0000 000000
2018-08-01 10:41:08,0.01,0.10,0.00,27.45,31.37,34.34,13.65,46.07,1010.18,2010.08,3377.31,3034.95,3492.97,600.12,583.64,5.18,0000 0000 0000 0000 000000
2018-08-01 10:46:09,0.00,0.10,0.00,27.43,31.37,34.34,13.64,46.08,1010.23,2010.09,3377.05,3034.92,3492.90,600.12,583.67,5.23,0000 0000 0000 0000 000000
2018-08-01 10:51:10,0.01,0.10,0.00,27.42,31.37,34.35,13.69,46.09,1010.21,2010.16,3377.00,3034.91,3492.69,600.18,583.78,5.28,0000 0000 0000 0000 000000
2018-08-01 10:56:11,0.01,0.10,0.00,27.42,31.36,34.31,13.67,46.11,1010.25,2010.15,3376.99,3034.72,3492.16,600.15,583.72,5.33,0000 0000 0000 0000 000000
2018-08-01 11:01:12,0.01,0.10,0.00,27.41,31.35,34.32,13.64,45.95,1010.27,2010.09,3376.82,3034.44,3492.00,599.83,583.57,5.38,0000 0000 0000 0000 000000
2018-08-01 11:06:14,0.02,0.10,0.00,27.40,31.35,34.32,13.66,46.07,1010.27,2010.14,3376.28,3034.25,3492.00,600.37,584.00,5.43,0000 0000 0000 0000 000000
2018-08-01 11:11:15,0.01,0.10,0.00,27.39,31.35,34.31,13.60,45.98,1010.27,2010.21,3375.94,3034.24,3491.84,599.70,583.43,5.48,0000 0000 0000 0000 000000
2018-08-01 11:16:16,0.04,0.10,0.00,27.38,31.35,34.32,13.61,46.19,1010.27,2010.22,3375.06,3033.96,3491.03,599.92,583.55,5.53,0000 0000 0000 0000 000000
2018-08-01 11:21:18,-0.01,0.10,0.00,27.37,31.35,34.32,13.73,46.02,1010.27,2010.15,3375.00,3033.92,3490.89,600.11,583.79,5.58,0000 0000 0000 0000 000000
2018-08-01 11:26:19,0.04,0.10,0.00,27.37,31.34,34.30,13.61,45.89,1010.27,2010.45,3374.99,3033.95,3490.63,599.71,583.47,5.63,0000 0000 0000 0000 000000
2018-08-01 11:31:21,0.01,0.10,0.00,27.37,31.32,34.31,13.68,46.01,1010.27,2010.58,3374.87,3033.93,3490.14,600.05,583.84,5.68,0000 0000 0000 0000 000000
2018-08-01 11:36:21,0.02,0.10,0.00,27.35,31.32,34.30,13.68,45.96,1010.28,2010.67,3374.42,3033.91,3490.02,600.01,583.57,5.73,0000 0000 0000 0000 000000
2018-08-01 11:41:23,0.01,0.11,0.00,27.35,31.32,34.29,13.67,45.99,1010.27,2010.84,3374.14,3033.93,3490.00,600.19,583.89,5.78,0000 0000 0000 0000 000000
2018-08-01 11:46:24,0.00,0.10,0.00,27.33,31.32,34.28,13.62,46.19,1010.27,2010.77,3374.00,3033.84,3489.99,600.09,583.86,5.84,0000 0000 0000 0000 000000
2018-08-01 11:51:26,0.00,0.11,0.00,27.32,31.31,34.26,13.64,46.16,1010.27,2010.91,3374.00,3033.86,3489.94,599.79,583.59,5.89,0000 0000 0000 0000 000000
2018-08-01 11:56:26,0.10,0.11,0.00,27.32,31.30,34.28,13.69,46.17,1010.28,2010.90,3372.75,3033.03,3488.91,599.92,583.73,5.94,0000 0000 0000 0000 000000
2018-08-01 12:01:28,0.13,0.12,0.00,27.31,31.30,34.27,13.70,46.12,1010.28,2010.97,3369.04,3030.40,3486.08,599.85,583.69,5.99,0000 0000 0000 0000 000000
2018-08-01 12:06:29,0.01,0.12,0.00,27.30,31.30,34.26,13.67,46.16,1010.28,2010.95,3368.53,3030.27,3485.97,600.09,583.97,6.04,0000 0000 0000 0000 000000
2018-08-01 12:11:30,0.00,0.12,0.00,27.29,31.28,34.25,13.67,46.08,1010.29,2010.94,3368.06,3030.20,3485.75,600.00,583.82,6.09,0000 0000 0000 0000 000000
2018-08-01 12:16:31,0.01,0.12,0.00,27.29,31.27,34.24,13.63,46.13,1010.29,2010.97,3368.01,3030.30,3485.30,599.95,583.86,6.14,0000 0000 0000 0000 000000
2018-08-01 12:21:33,-0.00,0.12,0.00,27.28,31.27,34.24,13.60,45.99,1010.29,2010.98,3368.00,3030.43,3485.07,599.78,583.72,6.19,0000 0000 0000 0000 000000
2018-08-01 12:26:34,0.00,0.12,0.00,27.27,31.27,34.23,13.65,46.14,1010.29,2010.98,3368.00,3030.42,3485.01,600.09,584.08,6.24,0000 0000 0000 0000 000000
2018-08-01 12:31:35,-0.00,0.12,0.00,27.26,31.25,34.23,13.73,46.05,1010.31,2010.99,3367.99,3030.61,3485.00,600.27,584.14,6.29,0000 0000 0000 0000 000000
2018-08-01 12:36:36,0.00,0.12,0.00,27.25,31.25,34.21,13.67,46.07,1010.38,2010.99,3367.86,3030.63,3484.99,600.09,584.08,6.34,0000 0000 0000 0000 000000
2018-08-01 12:41:38,0.03,0.12,0.00,27.24,31.25,34.21,13.68,46.00,1010.44,2010.99,3367.32,3030.39,3484.68,600.11,584.19,6.39,0000 0000 0000 0000 000000
2018-08-01 12:46:39,0.01,0.12,0.00,27.23,31.24,34.19,13.64,46.10,1010.60,2010.99,3367.00,3030.04,3484.05,600.12,584.20,6.44,0000 0000 0000 0000 000000
2018-08-01 12:51:40,0.00,0.12,0.00,27.22,31.22,34.19,13.63,46.18,1010.68,2010.99,3366.95,3030.02,3484.00,599.55,583.80,6.49,0000 0000 0000 0000 000000
2018-08-01 12:56:42,0.01,0.12,0.00,27.20,31.22,34.20,13.65,46.29,1010.74,2010.99,3366.60,3030.01,3483.99,600.05,584.50,6.54,0000 0000 0000 0000 000000
2018-08-01 13:01:43,-0.00,0.12,0.00,27.20,31.22,34.17,13.64,46.22,1010.73,2010.99,3366.37,3030.04,3483.98,599.76,584.10,6.59,0000 0000 0000 0000 000000